Tracking 31027 objects as of 19-Jul-2025
HD Live streaming from Space Station
objects crossing your sky now

OBJECT D

Track OBJECT D now!
10-day predictions


NORAD ID: 58920
Int'l Code: 2024-024D
Perigee: 350.6 km
Apogee: 357.3 km
Inclination: 97.3 °
Period: 91.5 minutes
Semi major axis: 6724 km
RCS: Unknown
Launch date: February 3, 2024
Source: (TBD)
Launch site: ()
Your satellite tracking list
KORSAT 7
Track 1 satellite(s)




NASA's NSSDC Master Catalog

Two Line Element Set (TLE):
1 58920U 24024D   25199.82959605  .00189706  00000-0  12958-2 0  9994
2 58920  97.3433 285.7014 0005020 188.3866 171.7316 15.74242361 81706
Source of the keplerian elements: AFSPC